Tracking 29892 objects as of 21-Nov-2024
HD Live streaming from Space Station
objects crossing your sky now

ONEWEB-0291

Track ONEWEB-0291 now!
10-day predictions
ONEWEB-0291 is classified as:


NORAD ID: 49081
Int'l Code: 2021-075G
Perigee: 1,199.8 km
Apogee: 1,201.9 km
Inclination: 87.9 °
Period: 109.3 minutes
Semi major axis: 7571 km
RCS: Unknown
Launch date: August 21, 2021
Source: United Kingdom (UK)
Launch site: TYURATAM MISSILE AND SPACE COMPLEX (TTMTR)
Your satellite tracking list
Your tracking list is empty




NASA's NSSDC Master Catalog

Two Line Element Set (TLE):
1 49081U 21075G   24325.84519933  .00000067  00000-0  13821-3 0  9996
2 49081  87.9084 120.0789 0001388 104.8298 255.2987 13.17650305158103
Source of the keplerian elements: AFSPC